Twin Falls, ID

2:50 AM MST on February 11, 2016 (GMT -0700)
Joslin Field-Magic Valley Regional

Weather History for KTWF - October, 2013

Change the Weather History Date:

Wednesday, October 9, 2013

  Actual Average Record
Temperature  
Mean Temperature 43 °F -  
Max Temperature 55 °F 66 °F 86 °F (2015)
Min Temperature 30 °F 40 °F 25 °F (1985)
Degree Days  
Heating Degree Days 22 12  
Month to date heating degree days 151 96  
Since 1 July heating degree days 258 257  
Cooling Degree Days 0 0  
Month to date cooling degree days 0 0  
Year to date cooling degree days 1138 678  
Moisture  
Dew Point 31 °F    
Average Humidity 61    
Maximum Humidity 76    
Minimum Humidity 46    
Precipitation  
Precipitation 0.00 in 0.03 in 0.14 in (1983)
Month to date precipitation 0.06 0.19  
Year to date precipitation 4.17 7.64  
Sea Level Pressure  
Sea Level Pressure 29.78 in    
Wind  
Wind Speed 7 mph (SW)    
Max Wind Speed 13 mph    
Max Gust Speed 16 mph    
Visibility 10 miles    
Events      
T = Trace of Precipitation, MM = Missing Value Source: NWS Daily Summary

Daily Weather History Graph

Daily Weather History Graph

Search for Another Location

Airport or City:

Trip Planner

Search our weather history database for the weather conditions in past years. The results will help you decide how hot, cold, wet, or windy it might be!

Date:

Astronomy

Oct. 09, 2013 Rise Set
Actual Time 7:44 AM MDT 7:05 PM MDT
Civil Twilight 7:16 AM MDT 7:33 PM MDT
Nautical Twilight 6:43 AM MDT 8:05 PM MDT
Astronomical Twilight 6:10 AM MDT 8:38 PM MDT
Moon 12:48 PM MDT (10/9) 10:39 PM MDT (10/9)
Length of Visible Light 12h 17m
Length of Day
11h 20m
Waxing Crescent, 26% of the Moon is Illuminated
Oct 9
Waxing Crescent
Oct 11
First Quarter
Oct 18
Full
Oct 26
Last Quarter
Nov 3
New

Hourly Weather History & Observations

Time (MDT) Temp. Windchill Dew Point Humidity Pressure Visibility Wind Dir Wind Speed Gust Speed Precip Events Conditions
12:53 AM 37.0 °F 30.4 °F 25.0 °F 62% 29.79 in 10.0 mi South 9.2 mph - N/A   Clear
1:53 AM 37.9 °F 32.1 °F 26.1 °F 62% 29.79 in 10.0 mi South 8.1 mph - N/A   Clear
2:53 AM 39.0 °F 32.8 °F 26.1 °F 60% 29.78 in 10.0 mi SSW 9.2 mph - N/A   Clear
3:53 AM 39.0 °F 35.7 °F 26.1 °F 60% 29.78 in 10.0 mi SW 4.6 mph - N/A   Clear
4:53 AM 39.9 °F 34.5 °F 28.9 °F 65% 29.78 in 10.0 mi SW 8.1 mph - N/A   Overcast
5:53 AM 34.0 °F 29.8 °F 26.1 °F 73% 29.80 in 10.0 mi WSW 4.6 mph - N/A   Clear
6:33 AM 35.6 °F 30.7 °F 28.4 °F 75% 29.85 in 10.0 mi SSW 5.8 mph - N/A   Mostly Cloudy
6:53 AM 36.0 °F 30.3 °F 28.9 °F 76% 29.81 in 10.0 mi South 6.9 mph - N/A   Mostly Cloudy
7:00 AM 37.4 °F 33.8 °F 28.4 °F 70% 29.84 in 10.0 mi SSW 4.6 mph - N/A   Partly Cloudy
7:53 AM 37.0 °F 33.3 °F 30.0 °F 76% 29.82 in 10.0 mi South 4.6 mph - N/A   Mostly Cloudy
8:53 AM 39.9 °F 36.7 °F 32.0 °F 73% 29.83 in 10.0 mi SSW 4.6 mph - N/A   Mostly Cloudy
9:53 AM 42.1 °F 40.2 °F 33.1 °F 70% 29.83 in 10.0 mi SW 3.5 mph - N/A   Clear
10:53 AM 45.0 °F - 33.1 °F 63% 29.83 in 10.0 mi Calm Calm - N/A   Clear
11:53 AM 48.0 °F - 32.0 °F 54% 29.81 in 10.0 mi Variable 3.5 mph - N/A   Clear
12:53 PM 50.0 °F - 35.1 °F 57% 29.80 in 10.0 mi NW 6.9 mph - N/A   Clear
1:53 PM 52.0 °F - 34.0 °F 50% 29.77 in 10.0 mi Variable 4.6 mph - N/A   Clear
2:53 PM 53.1 °F - 34.0 °F 48% 29.74 in 10.0 mi North 9.2 mph - N/A   Clear
3:53 PM 54.0 °F - 35.1 °F 49% 29.72 in 10.0 mi NNW 9.2 mph - N/A   Clear
4:53 PM 54.0 °F - 34.0 °F 47% 29.72 in 10.0 mi NNW 8.1 mph - N/A   Clear
5:53 PM 52.0 °F - 34.0 °F 50% 29.73 in 10.0 mi WNW 8.1 mph - N/A   Clear
6:53 PM 51.1 °F - 33.1 °F 50% 29.74 in 10.0 mi West 4.6 mph - N/A   Clear
7:53 PM 46.9 °F - 32.0 °F 56% 29.76 in 10.0 mi SSW 4.6 mph - N/A   Clear
8:53 PM 48.0 °F - 32.0 °F 54% 29.76 in 10.0 mi South 8.1 mph - N/A   Clear
9:53 PM 48.0 °F - 32.0 °F 54% 29.77 in 10.0 mi South 9.2 mph - N/A   Clear
10:53 PM 46.0 °F 41.4 °F 30.9 °F 56% 29.76 in 10.0 mi South 9.2 mph - N/A   Clear
11:53 PM 44.1 °F 39.0 °F 30.0 °F 58% 29.76 in 10.0 mi South 9.2 mph - N/A   Clear